CAPE
1723 2225 2734 3100 2912 377 538 647 636 568 491 376 217 720 765 1205 1198 852 119 168 445 637 1108 1927 2717 2123 2208 2227 2190 2118 1967 2328 2100 1802 2259 1231 1904 2254 2135 1877 2235 2072 2078 2251 2238 2113 1978 2036 2087
2874 2471 3184 3561 365 275 455 580 562 623 496 304 382 592 1048 1329 1160 117 18 60 194 226 868 1496 2783 2522 2150 2222 2298 2197 2216 2194 1950 2180 2197 1415 2175 1949 1943 1846 1812 2281 2170 2160 1692 2066 2124 2171 2281
3156 2859 2802 139 125 105 240 306 436 632 653 480 470 689 1123 1401 514 0 0 0 11 101 555 1823 2822 2607 2310 2157 2189 2215 1982 2092 2363 2412 2231 2056 1693 2038 1636 1830 1669 1867 1620 2073 1607 1903 1934 1979 2078
1850 3205 2576 159 126 79 214 584 496 606 516 363 313 664 1028 1230 429 23 0 0 0 75 976 2149 2683 1920 2487 2142 2165 1945 2188 2310 2092 2278 1989 2227 1946 1344 1860 2010 1901 1873 1476 1202 1604 1724 1940 1881 2092
1327 1876 200 256 164 117 283 558 513 407 298 300 328 510 848 901 472 0 0 0 16 198 1059 1650 2842 2575 2184 2002 1856 1849 2008 2220 2096 2083 1776 1639 1659 2077 1676 1522 1730 1440 1104 1007 1287 1373 1588 1919 2072
868 450 144 186 312 163 374 480 598 612 432 131 238 578 813 577 94 0 0 8 12 369 508 1855 2415 2852 2091 1974 1910 1798 1854 1696 1687 1833 1939 1941 1850 1462 1460 1595 1915 1808 1632 1052 904 1316 1491 2041 1724
217 174 120 163 229 200 346 375 684 638 512 434 525 851 529 221 36 0 0 1 2 231 503 1342 1562 2085 2422 1712 1669 1437 1533 1840 2015 1864 2042 2216 2216 1998 1488 1468 1482 1335 1635 1679 1664 1462 1537 1848 1658
166 187 75 79 135 250 394 475 643 755 805 747 888 980 654 267 23 0 0 0 0 149 560 801 1088 1196 1478 1621 1521 1485 1654 1703 1657 1719 1607 1612 1537 1144 1040 1194 1123 1220 1062 1268 1070 941 1648 1644 1589
90 167 153 162 197 157 567 566 688 906 880 1051 1075 1086 879 177 27 0 0 0 24 113 285 345 635 637 598 758 1525 1787 1788 1749 1777 1604 1570 1581 947 1468 1234 1234 702 422 688 799 713 1170 1234 1565 1152
88 70 10 3 33 192 403 630 550 930 1119 1355 1287 1181 878 182 88 14 0 0 11 84 120 126 299 553 611 497 1694 980 920 832 886 1131 1842 1883 1921 1719 1121 49 0 26 147 381 466 508 370 753 398
1 8 1 2 0 56 265 484 436 442 741 762 1445 1305 869 358 198 35 0 9 17 44 112 99 134 420 362 273 616 786 835 1612 1368 1807 1858 2178 1716 1591 676 161 103 386 504 224 393 519 263 176 324
27 0 0 0 0 20 161 233 404 542 856 906 1312 1284 1114 748 435 58 0 13 46 79 57 70 183 325 416 492 359 355 328 705 1282 889 1800 2365 1627 1601 1330 761 350 391 1337 890 579 798 824 836 571
1 8 2 0 0 5 95 249 365 658 1033 1089 1190 1324 1209 985 642 104 52 62 89 143 152 187 254 672 811 981 519 378 296 399 460 1589 1679 1991 1332 1662 1324 1450 1564 254 820 650 292 958 572 630 791
1 0 3 0 5 40 79 166 376 744 1191 1223 1132 1315 1230 1050 818 569 464 386 425 477 436 472 648 953 1252 1182 997 703 661 471 595 886 1759 2146 1802 1679 1599 2730 2524 909 1079 657 375 1911 1726 1432 926
0 2 12 4 0 17 64 204 404 933 1337 1330 1184 1283 1239 1076 1011 844 818 838 726 1067 1057 1376 1474 1557 1808 1588 1427 1118 784 751 723 584 2187 2162 2868 2126 1971 2609 2659 2809 1036 1294 997 310 1386 1054 1187
2 3 48 6 0 0 27 458 729 934 1366 1447 1340 1290 1287 1194 1012 1208 1317 1427 1286 1376 1661 376 604 2033 2181 2060 1815 1499 1279 1435 1188 1923 1815 2446 2717 2219 2544 1720 1328 2696 2697 2235 1530 1300 631 2183 1706
12 12 66 29 5 1 26 496 887 795 1128 1461 1461 1423 1423 1349 1257 1298 1362 1885 1386 1929 1755 144 411 1351 1949 2368 2710 2609 2635 1653 1551 1274 1223 1407 2122 2613 2800 2211 2614 2842 1833 2716 2108 1647 1051 1091 1322
12 95 23 48 71 11 99 117 724 865 807 1360 1389 1599 1440 1486 1393 1439 1586 1654 1920 2071 2459 1067 1115 942 1988 2178 2389 2367 2092 1845 1600 1548 1638 1792 1983 2099 2961 2090 2348 3365 1608 2191 1553 1529 2048 1778 1151
36 20 51 58 40 36 85 66 194 826 991 1153 1254 1623 1602 1498 1378 1595 1727 1866 1916 2114 2380 2918 2744 3226 2785 2696 2186 2224 2093 1999 2532 1620 1161 1556 1593 2593 2385 2316 2339 2479 3310 2656 2641 2407 1531 2410 2192
7 21 87 65 67 22 176 71 137 546 888 1084 1144 1497 1437 1500 1222 1448 1734 1713 1997 2277 2478 2832 2879 3057 3065 2557 2209 1912 2028 1750 1506 255 847 1096 1228 1396 913 1717 1903 2219 2829 2983 2688 2327 2206 2397 2168
47 54 27 40 1 14 39 59 101 351 794 1056 1248 1207 1330 1347 1135 1133 1511 1786 2109 2258 2359 2768 3054 3365 3249 2106 2352 2574 2480 2276 729 645 743 546 513 592 1101 1591 1739 1778 3382 2823 2736 2391 2224 1346 1765
91 23 4 0 23 129 256 97 254 446 731 1120 1242 1239 1243 1200 1126 1230 1558 1897 2151 2231 2197 2431 2821 3168 3028 2194 2542 2578 2391 1731 610 779 912 1114 1356 1477 1663 1400 1410 1381 1629 2362 2204 2694 2561 2374 1592
112 2 3 8 33 113 130 112 195 80 208 902 981 1144 1187 956 1003 1034 828 1415 1691 2355 2218 2450 2841 2847 2391 2741 3445 2729 2503 2162 1204 1331 1205 1594 2133 1604 1180 1164 1365 1404 1829 2166 2051 2051 2492 1993 1602
89 9 0 42 48 71 141 113 142 9 165 437 814 1020 1041 674 627 724 587 792 1501 2112 1923 2438 3049 3250 3186 3262 2867 2812 2857 2468 2094 1602 1236 1075 764 554 761 1264 1766 1468 1209 1979 1857 1764 1813 2590 2146
14 11 105 194 103 111 130 63 87 39 23 195 673 951 794 614 597 797 726 1142 1886 2203 2087 2495 2840 2911 2662 2583 2798 3102 2963 2915 1783 1846 1155 1637 684 413 2031 1340 1431 1391 1076 1111 1338 1327 1647 2154 2435
14 27 117 227 267 87 2 101 143 127 151 378 489 828 655 690 941 731 1070 2014 2240 2435 2466 2526 2682 2847 2856 2835 2739 2831 2709 1535 1426 1646 1595 1068 439 291 475 768 1554 1263 1571 581 896 685 1259 1304 2019
99 40 53 117 85 214 77 125 51 232 375 497 491 822 642 1074 846 799 1294 2045 2467 2563 2668 2540 2812 2893 3154 2764 3571 2399 1902 2087 2214 1676 1422 226 92 28 180 449 1558 1312 1609 865 575 399 84 678 453
8 39 65 89 97 72 97 71 207 420 590 655 621 886 813 1322 888 959 1226 1718 2213 2532 2653 2677 2893 3259 3196 3105 2337 1895 2003 1865 985 356 248 124 88 158 279 399 287 381 1278 1068 902 678 288 191 385
8 0 20 49 26 110 103 176 171 204 349 747 754 871 942 1498 1182 1334 1443 1793 2126 2395 2568 2784 3129 3235 2625 1848 1607 1735 1099 406 174 0 0 80 173 279 311 826 881 707 1158 944 1135 902 787 708 587
19 32 26 75 53 43 89 88 35 265 340 573 713 785 1150 1664 1536 1924 2167 2354 2458 2474 2789 2848 2726 2098 1611 1716 1211 848 500 164 0 0 22 59 202 278 436 710 855 688 661 1398 1347 917 770 627 383
CIN
-292 -206 -92 -37 -3 -0 -0 -0 -0 -0 -0 -0 -0 -0 -1 -0 -1 -2 -64 -23 -3 -15 -10 -0 -0 -0 -0 -0 -0 -0 -0 -0 -0 -4 -0 -11 -0 -0 -0 -0 -0 -0 -0 -0 -0 -0 -0 -2 -0
-68 -114 -62 -8 -2 -0 -0 -0 -0 -0 -0 -0 -0 -0 -0 -0 -4 -90 -98 -82 -22 -36 -13 -0 -0 -0 -0 -0 -0 -0 -0 -0 -2 -1 -0 -2 -0 -0 -0 -0 -2 -0 -0 -0 -3 -0 -0 -0 -0
-126 -98 -4 -8 -1 -1 -0 -0 -0 -0 -0 -0 -0 -0 -0 -1 -23 -0 -0 -0 -59 -60 -9 -2 -0 -0 -0 -0 -0 -0 -0 -1 -2 -0 -0 -0 -1 -0 -0 -0 -0 -0 -0 -0 -0 -0 -0 -0 -0
-57 -4 -21 -4 -6 -6 -0 -0 -0 -0 -0 -0 -0 -1 -20 -4 -30 -42 -0 -0 -0 -48 -0 -1 -0 -0 -0 -0 -0 -0 -1 -2 -2 -0 -0 -0 -0 -4 -0 -0 -0 -0 -0 -0 -0 -0 -0 -0 -0
-49 -11 -0 -0 -3 -4 -0 -0 -1 -0 -0 -3 -0 -1 -28 -24 -46 -0 -0 -0 -77 -7 -15 -7 -0 -0 -0 -0 -0 -0 -2 -1 -1 -0 -0 -1 -1 -0 -0 -1 -0 -0 -0 -1 -0 -0 -0 -0 -0
-1 -0 -0 -0 -0 -0 -0 -0 -0 -0 -0 -42 -16 -2 -27 -56 -128 -0 -0 -105 -75 -3 -33 -1 -0 -0 -0 -0 -0 -0 -0 -1 -0 -0 -0 -1 -0 -2 -1 -1 -0 -0 -0 -1 -4 -0 -0 -0 -0
-2 -0 -0 -0 -0 -0 -0 -1 -0 -0 -0 -0 -0 -0 -32 -77 -210 -0 -0 -23 -0 -9 -17 -6 -2 -0 -0 -0 -0 -0 -1 -1 -2 -0 -0 -1 -1 -1 -0 -0 -0 -0 -0 -0 -0 -0 -2 -2 -0
-10 -1 -3 -4 -0 -0 -0 -0 -0 -0 -4 -0 -1 -1 -21 -72 -218 -0 -0 -0 -2 -15 -10 -14 -8 -10 -1 -0 -1 -0 -0 -1 -0 -0 -0 -2 -1 -2 -2 -5 -4 -3 -9 -0 -0 -1 -0 -0 -0
-17 -0 -0 -0 -0 -0 -0 -0 -0 -0 -0 -3 -2 -0 -19 -95 -184 -0 -0 -0 -169 -65 -16 -9 -5 -10 -2 -0 -0 -0 -0 -0 -1 -0 -0 -2 -0 -0 -6 -7 -6 -7 -4 -2 -6 -5 -5 -0 -1
-1 -0 -0 -0 -0 -0 -0 -1 -0 -0 -0 -1 -17 -22 -46 -112 -124 -151 -0 -0 -114 -94 -45 -25 -0 -0 -0 -0 -11 -0 -1 -1 -1 -0 -1 -7 -16 -12 -21 -45 -0 -20 -13 -8 -11 -15 -15 -3 -0
-0 -0 -0 -0 -0 -35 -0 -0 -0 -34 -0 -0 -9 -36 -58 -67 -64 -101 -0 -31 -34 -97 -75 -56 -29 -0 -0 -2 -0 -0 -0 -11 -8 -0 -0 -1 -13 -21 -2 -2 -8 -19 -7 -0 -25 -5 -0 -1 -2
-0 -0 -0 -0 -0 -8 -2 -1 -3 -0 -1 -0 -17 -36 -32 -34 -23 -81 -1 -40 -39 -124 -45 -90 -31 -4 -0 -0 -0 -0 -0 -0 -9 -22 -0 -9 -12 -10 -23 -21 -65 -23 -8 -30 -23 -3 -26 -2 -14
-0 -0 -0 -0 -0 -0 -13 -1 -1 -1 -0 -9 -19 -33 -18 -0 -1 -26 -11 -5 -37 -61 -78 -72 -35 -17 -11 -8 -0 -0 -1 -0 -0 -18 -3 -35 -17 -25 -24 -13 -7 -22 -11 -10 -17 -6 -11 -14 -1
-0 -0 -0 -0 -0 -18 -8 -3 -2 -1 -4 -18 -14 -16 -0 -0 -0 -0 -0 -4 -8 -16 -14 -9 -5 -4 -11 -8 -7 -0 -0 -0 -0 -3 -56 -8 -0 -8 -23 -0 -0 -8 -16 -17 -30 -3 -0 -0 -2
-0 -0 -0 -0 -0 -3 -7 -1 -0 -1 -2 -0 -0 -0 -0 -0 -0 -0 -1 -1 -12 -0 -0 -0 -0 -0 -0 -13 -4 -6 -0 -0 -0 -0 -10 -2 -5 -2 -6 -2 -1 -0 -28 -6 -2 -60 -1 -0 -0
-0 -0 -2 -0 -0 -2 -42 -0 -8 -9 -1 -0 -0 -0 -0 -0 -0 -1 -0 -7 -8 -15 -43 -155 -116 -3 -0 -0 -0 -0 -0 -1 -1 -2 -6 -9 -5 -0 -0 -6 -8 -0 -0 -0 -0 -0 -15 -0 -2
-4 -4 -0 -3 -17 -15 -17 -1 -11 -7 -0 -0 -1 -0 -3 -0 -0 -0 -0 -0 -4 -2 -60 -258 -165 -31 -1 -0 -0 -1 -0 -0 -0 -0 -0 -0 -1 -0 -0 -0 -0 -0 -12 -0 -4 -4 -3 -1 -5
-42 -0 -1 -0 -2 -10 -3 -2 -3 -8 -0 -0 -0 -1 -0 -0 -0 -0 -0 -0 -0 -0 -27 -104 -102 -121 -9 -0 -0 -0 -0 -0 -0 -0 -0 -0 -0 -0 -0 -0 -0 -1 -4 -0 -7 -1 -0 -5 -19
-1 -1 -0 -5 -7 -4 -1 -1 -0 -3 -7 -0 -1 -0 -0 -0 -0 -0 -0 -0 -0 -0 -0 -0 -0 -0 -0 -0 -0 -0 -0 -0 -0 -0 -41 -9 -5 -0 -0 -0 -0 -0 -0 -0 -0 -2 -6 -0 -0
-4 -0 -0 -2 -15 -11 -1 -3 -0 -1 -2 -0 -0 -0 -0 -0 -0 -0 -5 -4 -8 -1 -3 -0 -0 -0 -0 -0 -0 -0 -0 -0 -4 -77 -60 -13 -1 -10 -42 -2 -1 -0 -0 -0 -0 -0 -3 -0 -4
-0 -0 -15 -1 -13 -13 -13 -1 -1 -1 -9 -4 -1 -0 -0 -0 -0 -0 -0 -0 -11 -13 -15 -12 -1 -0 -0 -1 -0 -0 -0 -5 -45 -45 -46 -72 -59 -70 -48 -13 -18 -17 -0 -0 -0 -0 -0 -0 -14
-3 -20 -2 -0 -3 -7 -29 -9 -18 -0 -2 -17 -13 -0 -0 -0 -0 -0 -0 -1 -0 -18 -26 -34 -21 -7 -8 -29 -0 -0 -0 -0 -16 -18 -2 -25 -8 -10 -2 -8 -17 -14 -0 -0 -0 -0 -0 -0 -0
-0 -14 -0 -23 -0 -0 -1 -0 -19 -1 -1 -2 -13 -0 -0 -0 -0 -0 -0 -1 -4 -18 -35 -39 -32 -22 -21 -6 -0 -0 -0 -0 -13 -0 -1 -0 -2 -0 -0 -0 -0 -0 -0 -0 -0 -0 -0 -4 -5
-1 -7 -0 -2 -2 -0 -6 -0 -41 -35 -1 -0 -8 -0 -3 -0 -0 -7 -25 -19 -6 -23 -52 -42 -37 -12 -0 -0 -0 -0 -0 -0 -0 -1 -3 -0 -0 -0 -0 -0 -0 -0 -0 -0 -0 -0 -0 -0 -1
-0 -0 -0 -0 -0 -0 -2 -6 -5 -17 -27 -22 -6 -0 -8 -3 -16 -32 -48 -23 -29 -28 -46 -41 -47 -33 -20 -5 -0 -0 -0 -0 -4 -0 -0 -4 -0 -1 -1 -0 -0 -0 -0 -0 -0 -0 -0 -0 -0
-3 -0 -0 -0 -0 -16 -43 -0 -3 -9 -21 -26 -17 -0 -2 -18 -2 -25 -24 -22 -38 -37 -38 -25 -43 -37 -13 -0 -0 -0 -0 -0 -0 -0 -0 -0 -0 -11 -1 -0 -0 -0 -0 -0 -0 -0 -0 -1 -0
-4 -0 -1 -2 -2 -0 -0 -0 -7 -6 -17 -24 -24 -6 -19 -1 -27 -25 -9 -10 -23 -34 -41 -36 -27 -25 -3 -1 -1 -4 -5 -0 -1 -0 -0 -41 -94 -133 -40 -5 -1 -0 -0 -0 -0 -0 -29 -0 -6
-12 -7 -0 -0 -0 -4 -1 -0 -0 -2 -9 -18 -27 -22 -23 -1 -24 -18 -17 -18 -23 -16 -21 -19 -16 -4 -0 -0 -2 -12 -1 -0 -11 -22 -53 -110 -102 -67 -35 -14 -29 -17 -0 -0 -0 -0 -0 -5 -5
-6 -0 -0 -3 -13 -0 -0 -32 -9 -1 -4 -18 -25 -23 -10 -5 -18 -15 -19 -24 -22 -15 -12 -6 -0 -0 -0 -8 -11 -19 -28 -53 -45 -0 -0 -109 -45 -21 -24 -0 -0 -0 -0 -0 -0 -0 -0 -0 -0
-0 -0 -0 -0 -2 -0 -0 -58 -42 -0 -9 -1 -1 -12 -0 -0 -0 -3 -6 -7 -11 -13 -1 -0 -0 -4 -5 -4 -34 -38 -60 -85 -0 -0 -100 -89 -35 -24 -15 -4 -3 -5 -1 -0 -0 -0 -0 -0 -0
Wind_Speed
12 13 6 5 6 4 10 9 12 13 12 9 7 12 10 16 12 7 20 17 20 21 19 16 13 14 14 14 14 13 13 11 11 8 11 9 8 9 9 9 9 10 11 11 10 11 11 12 12
7 5 7 6 2 10 11 12 16 12 9 9 8 7 14 16 11 19 18 21 21 20 18 18 13 13 14 14 13 13 12 11 10 8 10 9 9 9 9 9 8 10 10 11 10 9 12 11 11
16 7 9 5 10 12 11 14 11 9 6 4 7 12 8 12 14 15 21 22 21 19 17 18 15 14 15 14 13 13 11 9 9 11 10 8 9 8 7 7 7 9 8 9 9 10 10 11 10
7 7 6 8 15 16 15 12 7 11 12 7 4 12 11 6 14 17 21 20 20 19 20 17 16 16 15 15 13 12 9 11 9 11 9 8 7 8 7 8 9 8 8 8 7 8 9 10 11
10 8 7 13 15 14 13 10 8 15 10 12 4 15 14 10 12 22 20 17 18 18 20 17 14 15 14 14 12 11 9 11 8 8 8 7 6 6 6 6 5 6 6 6 7 8 7 8 8
9 5 6 11 12 15 12 6 12 14 9 12 12 15 11 12 18 19 18 17 16 18 18 16 14 13 14 13 13 11 8 10 8 7 6 7 8 6 4 4 4 4 4 6 6 5 7 8 6
7 1 9 12 15 11 12 10 9 13 15 14 4 14 12 15 18 18 16 15 16 17 18 14 15 12 13 13 11 11 8 7 5 4 4 4 6 7 5 2 3 3 4 4 4 6 5 5 5
7 5 9 8 13 12 5 12 4 14 12 6 10 9 14 18 18 17 15 15 15 15 16 13 13 13 12 13 12 10 8 7 6 5 4 3 3 2 2 2 1 3 3 4 5 6 6 6 6
9 5 7 12 13 13 1 10 8 2 11 14 8 12 20 20 19 17 15 14 13 11 14 15 14 13 12 12 11 9 8 7 6 7 8 8 4 3 1 2 4 6 7 6 7 7 7 7 9
11 10 8 4 7 9 6 3 2 6 10 15 12 16 19 19 18 17 16 15 16 13 13 14 14 14 11 9 14 11 11 11 10 9 10 5 5 3 5 6 10 11 11 10 11 12 11 10 10
4 7 3 6 9 7 6 3 3 14 12 14 15 15 17 17 16 16 15 15 14 13 11 11 10 12 11 5 8 6 7 5 8 7 7 4 3 4 7 5 6 3 11 9 9 5 9 12 9
7 2 1 2 4 3 5 5 2 9 10 17 15 16 16 16 15 15 15 14 13 13 12 10 11 6 7 6 6 6 5 5 8 6 9 7 5 7 6 5 5 4 5 6 7 5 7 7 8
6 4 4 2 1 5 2 1 6 5 8 14 16 15 15 14 14 14 14 14 12 13 12 11 9 9 7 6 5 6 5 5 6 10 10 9 8 8 4 6 4 7 5 4 7 5 5 6 9
7 9 4 2 7 1 6 2 2 11 10 13 15 14 13 14 15 15 15 12 11 11 11 11 10 10 9 8 8 6 5 6 4 2 6 6 5 3 6 5 6 8 4 6 7 4 9 6 7
8 14 9 5 3 4 7 4 6 11 11 13 13 12 12 11 14 12 12 13 9 12 13 8 9 10 10 11 9 9 7 9 7 6 6 7 7 7 5 6 7 6 6 6 9 5 6 8 9
10 13 12 12 5 6 10 13 12 10 11 12 13 11 11 11 13 11 12 13 9 3 12 10 9 5 13 10 8 8 8 6 5 2 3 8 7 8 6 5 8 6 6 8 9 7 9 5 5
11 7 8 5 6 8 6 8 10 9 11 11 14 12 11 12 10 12 10 15 15 11 17 10 8 9 6 10 7 7 6 6 6 7 7 8 8 8 6 7 9 6 5 8 7 7 9 9 6
12 8 10 4 7 8 11 2 10 5 8 10 11 14 9 10 13 11 11 10 12 10 19 15 12 13 10 5 6 7 6 7 7 7 8 9 8 9 5 7 9 6 7 8 8 11 8 5 4
9 10 4 6 3 9 2 9 6 7 6 8 11 14 17 12 12 12 11 10 9 12 12 18 16 15 10 7 7 8 8 7 6 4 9 8 8 6 8 7 7 8 7 11 9 7 9 8 8
10 13 11 9 5 7 4 10 6 9 7 9 9 12 11 14 10 12 11 11 10 10 12 12 12 11 8 8 7 4 3 7 1 1 2 3 4 3 7 9 8 8 8 11 10 11 6 7 6
15 16 3 6 5 11 11 7 5 11 6 8 9 9 10 11 14 14 13 12 12 11 11 11 11 11 10 7 5 5 4 2 5 5 4 4 5 7 7 9 9 11 8 8 11 11 13 10 7
21 9 1 7 11 1 22 4 20 13 12 8 10 10 11 12 10 10 20 15 14 12 11 11 11 11 10 9 7 8 7 7 5 3 2 4 6 6 6 7 8 9 9 9 10 10 11 10 11
15 4 8 7 15 14 12 10 14 10 8 16 11 14 11 13 14 12 5 17 13 14 12 11 11 10 9 9 8 8 8 6 5 3 1 4 5 5 4 6 10 9 9 9 11 11 11 9 9
11 4 13 14 15 12 17 9 13 4 8 6 12 13 12 9 9 7 6 9 10 14 12 11 11 8 7 8 8 7 6 5 5 2 5 5 4 3 3 6 8 11 12 11 9 11 12 10 10
14 15 14 14 13 11 18 6 3 11 7 1 11 12 12 9 10 10 9 9 10 12 13 11 11 9 7 7 7 7 5 4 2 5 5 6 6 7 9 9 9 8 10 11 11 9 9 10 10
17 21 15 11 9 6 20 2 7 9 6 4 7 13 12 10 10 10 12 11 11 12 13 12 12 10 9 8 5 1 2 5 5 2 5 7 6 7 8 9 9 9 9 9 8 8 6 6 7
19 19 23 20 24 19 6 10 9 13 9 6 11 14 14 11 9 9 11 12 13 13 13 12 12 10 9 9 6 6 3 3 7 3 5 6 5 7 9 10 6 8 9 9 9 4 4 5 3
19 13 12 9 10 6 8 4 5 10 9 8 12 15 15 13 10 11 11 10 10 12 12 12 12 11 10 10 8 7 5 2 1 2 2 4 4 6 8 9 10 9 7 6 8 6 4 5 4
12 13 11 10 6 9 8 10 2 4 4 12 12 14 17 14 12 11 11 11 11 11 12 13 13 12 9 9 8 6 4 4 3 2 1 3 4 5 7 8 10 10 11 9 6 7 7 7 7
23 19 20 10 12 11 10 5 11 5 4 9 13 14 17 15 13 11 11 11 11 11 11 10 9 10 9 8 6 6 5 3 4 1 1 3 6 7 8 9 10 10 10 12 10 6 6 7 8
Wind_Direction
184 207 241 252 256 85 67 53 58 42 73 65 84 36 63 43 39 75 135 141 141 135 135 154 142 140 134 132 132 132 130 133 112 119 112 110 118 112 116 115 103 115 114 114 109 108 112 111 115
283 247 221 264 358 63 65 64 55 50 64 80 97 153 91 63 74 123 139 136 137 139 147 138 140 141 141 137 135 136 135 132 144 128 118 120 106 109 106 96 96 98 107 116 112 111 106 102 101
260 286 275 28 48 60 62 65 75 85 41 74 97 30 24 95 107 129 125 143 139 140 148 121 142 145 146 144 144 137 141 139 112 105 115 125 122 105 121 116 124 119 116 102 118 112 122 116 109
285 199 244 74 65 56 73 69 63 107 109 53 68 88 96 36 132 120 138 148 136 147 124 132 140 147 145 147 146 148 150 130 131 122 111 106 114 118 120 115 122 120 123 123 122 121 118 110 111
233 258 102 89 74 73 71 68 33 69 54 49 32 81 85 92 116 132 144 148 143 137 120 140 146 146 146 148 149 145 151 121 112 120 129 124 115 112 134 129 121 137 131 133 139 141 140 127 116
261 278 90 80 88 81 72 65 77 78 92 91 95 95 82 118 131 142 150 143 147 128 138 136 147 149 150 151 154 157 159 133 153 156 147 149 146 131 123 108 114 135 161 152 154 159 161 150 137
309 314 76 99 90 72 68 42 45 78 67 76 85 75 116 135 140 146 154 146 134 139 136 146 153 147 150 156 157 161 167 154 148 139 150 151 127 141 135 127 164 171 177 181 170 176 199 164 163
291 285 79 56 77 68 81 64 69 48 67 107 349 118 150 136 152 150 155 149 142 143 136 151 147 160 167 159 162 169 174 174 177 179 179 153 144 139 151 185 301 279 245 228 217 216 202 191 203
251 275 68 29 62 94 223 90 69 155 114 52 50 57 116 144 155 155 156 151 150 157 154 159 159 164 181 158 155 170 181 186 180 192 201 185 170 194 145 232 262 272 271 259 254 242 232 224 218
283 58 41 37 5 79 101 32 189 196 137 114 87 91 126 151 159 160 164 159 165 168 172 168 170 158 178 171 141 185 184 192 198 196 172 213 106 208 230 241 250 247 251 248 241 231 228 233 240
356 63 6 70 39 1 61 148 312 119 60 66 110 128 144 154 166 167 170 168 172 171 184 178 175 153 173 198 166 185 184 189 190 172 191 171 179 224 234 252 237 299 240 245 203 255 229 227 241
260 176 49 35 31 354 332 12 23 19 44 78 114 140 149 163 171 171 176 169 170 175 186 196 167 173 207 171 193 207 229 197 195 168 202 149 219 200 198 224 249 202 211 231 216 213 227 240 230
251 360 288 24 86 276 57 332 24 74 103 102 125 146 155 166 167 167 171 161 171 175 186 188 191 175 202 229 227 232 226 201 231 158 190 159 205 246 181 219 225 250 221 259 278 243 276 281 246
5 277 293 279 70 183 289 106 247 122 131 126 137 155 159 161 170 157 161 154 174 176 173 194 187 173 200 215 231 244 234 264 267 209 154 215 242 248 201 213 215 229 214 213 236 237 265 248 274
279 267 184 127 59 32 292 229 156 117 148 145 144 161 160 170 157 161 168 146 181 181 165 174 188 178 197 202 209 220 243 222 229 221 163 209 180 264 262 225 217 220 213 226 223 250 230 251 254
242 242 241 122 313 113 275 92 101 144 165 167 150 157 162 168 175 174 159 155 175 190 108 58 322 266 179 210 205 230 218 244 260 325 224 188 194 215 233 249 259 224 225 225 229 214 242 250 236
197 228 270 128 124 307 234 104 108 167 172 182 157 161 167 172 185 171 190 166 170 183 133 160 212 260 247 188 210 238 227 224 240 232 231 221 208 215 225 240 260 211 210 226 242 236 219 237 211
315 205 178 224 69 298 269 232 116 167 202 178 185 149 164 180 183 184 193 202 170 182 150 178 187 227 207 227 220 239 223 227 240 246 251 254 241 236 229 256 257 231 231 230 229 226 232 225 232
299 303 316 135 61 287 319 297 85 156 195 184 201 170 170 191 160 169 190 191 195 172 186 179 188 209 191 209 213 210 214 216 215 265 348 309 281 304 255 266 269 278 245 254 230 238 239 234 209
225 251 254 122 160 268 236 267 143 162 200 199 200 176 176 148 182 165 174 183 191 182 180 192 195 195 192 205 225 237 221 238 32 324 318 268 255 285 297 295 286 275 279 271 242 231 231 232 212
238 250 134 344 342 237 262 257 251 155 176 197 210 205 183 177 179 174 180 185 177 176 175 181 186 176 194 216 204 189 212 224 215 198 195 186 250 280 288 294 308 307 286 267 263 235 228 229 213
244 246 112 261 259 311 287 181 245 151 168 173 200 200 203 178 190 214 164 178 176 172 166 164 179 183 191 195 192 206 221 219 208 268 196 266 248 262 285 315 308 286 284 268 264 253 234 232 229
259 203 274 271 258 252 182 271 163 186 174 160 212 182 209 172 186 186 228 147 167 165 171 164 170 183 208 199 224 193 228 222 236 268 290 253 224 250 269 327 328 316 300 297 270 254 240 226 235
251 235 239 241 252 261 119 252 51 191 65 136 175 181 186 187 144 132 132 131 154 159 169 166 155 170 190 199 225 232 190 256 284 18 315 289 309 321 320 343 323 316 325 325 301 273 249 232 217
224 228 235 224 217 241 159 196 142 171 65 126 174 176 167 152 146 141 148 154 149 160 170 164 155 157 174 204 197 207 222 225 252 302 326 335 304 346 18 346 321 322 328 326 334 304 263 239 222
211 237 248 212 268 51 326 247 106 57 94 146 198 164 161 172 130 154 147 143 162 168 169 171 167 159 172 190 194 160 114 204 249 158 337 301 331 355 347 338 319 318 322 331 342 352 312 282 247
209 223 258 286 194 244 210 138 169 131 127 176 188 160 161 163 158 139 153 152 156 168 169 171 170 167 172 171 130 159 172 338 9 351 306 17 1 342 4 343 346 330 322 337 332 347 341 0 328
245 283 233 244 275 264 267 222 108 152 159 176 178 175 165 150 164 158 149 147 150 158 161 161 168 164 173 139 166 165 158 189 138 266 333 350 352 5 356 354 351 344 338 326 328 328 314 322 322
210 241 265 278 260 293 244 42 49 112 167 171 186 190 166 156 175 154 144 145 142 145 153 163 168 153 150 166 161 154 169 157 215 186 120 5 6 352 356 355 351 351 345 353 332 309 305 286 280
205 215 243 228 219 254 291 80 215 74 128 166 182 189 165 167 164 155 145 149 140 150 157 155 143 156 164 138 166 171 178 198 155 216 28 9 5 353 347 355 350 348 344 335 343 338 296 275 285